Date String (YYYY-MM-DD hh:mm:ss) UTC,Instrument flags,Ambient pressure (hPa),Sample flow (lpm),Bypass flow (lpm),Sample temperature (°C),Ambient temperature (°C),ASC tube jacket temperature (°C),LED temperature (°C),Box temperature (°C),Sample RH (%),Span deviation,Mass concentration (μg/m³),Mass concentration (μg/m³),Mass concentration (μg/m³)
DateTimeUTC,F1_M11,P_M11,Q1_M11,Q2_M11,T1_M11,T2_M11,T3_M11,T4_M11,T5_M11,U1_M11,ZSPAN_M11,X0_M11,X2_M11,X1_M11
2022-03-20 17:00:00,,0819.0,5.00,0.00,24.9,24.0,00.0,33.8,26.7,11.3,0000.0,0013.97,0005.17,0003.31
2022-03-20 17:01:00,,0818.9,5.01,0.00,24.9,24.1,00.0,33.8,26.7,11.4,0000.0,0013.69,0005.11,0003.33
2022-03-20 17:02:00,,0818.9,4.99,0.00,24.9,24.1,00.0,33.8,26.8,11.3,0000.0,0013.32,0005.10,0003.36
2022-03-20 17:03:00,,0819.0,5.01,0.00,25.0,24.1,00.0,33.8,26.8,11.4,0000.0,0012.39,0005.06,0003.38
2022-03-20 17:04:00,,0818.9,4.99,0.00,25.0,24.1,00.0,33.8,26.8,11.8,0000.0,0012.28,0005.04,0003.41
2022-03-20 17:05:00,,0818.9,5.00,0.00,25.0,24.1,00.0,33.8,26.8,12.2,0000.0,0012.79,0005.03,0003.43
2022-03-20 17:06:00,,0818.9,4.99,0.00,25.0,24.1,00.0,33.8,26.8,12.1,0000.0,0013.37,0005.08,0003.44
2022-03-20 17:07:00,,0818.8,5.02,0.00,25.0,24.1,00.0,33.8,26.9,12.0,0000.0,0013.56,0005.06,0003.46
2022-03-20 17:08:00,,0818.8,4.98,0.00,25.0,24.2,00.0,33.9,26.9,12.1,0000.0,0014.26,0005.08,0003.48
2022-03-20 17:09:00,,0818.8,5.01,0.00,25.0,24.2,00.0,33.9,26.9,12.1,0000.0,0013.99,0005.17,0003.52
2022-03-20 17:10:00,,0818.9,4.99,0.00,25.0,24.2,00.0,33.9,26.9,12.0,0000.0,0013.65,0005.25,0003.57
2022-03-20 17:11:00,,0818.8,5.01,0.00,25.0,24.2,00.0,33.9,26.9,11.7,0000.0,0013.70,0005.32,0003.62
2022-03-20 17:12:00,,0818.8,4.99,0.00,25.1,24.2,00.0,33.9,26.9,11.8,0000.0,0013.61,0005.38,0003.68
2022-03-20 17:13:00,,0818.8,5.01,0.00,25.1,24.2,00.0,33.9,26.9,12.0,0000.0,0013.37,0005.44,0003.72
2022-03-20 17:14:00,,0818.8,4.99,0.00,25.1,24.2,00.0,33.9,27.0,11.8,0000.0,0013.33,0005.50,0003.76
2022-03-20 17:15:00,,0818.8,4.99,0.00,25.1,24.3,00.0,34.0,27.0,11.7,0000.0,0013.23,0005.52,0003.79
2022-03-20 17:16:00,,0818.9,5.01,0.00,25.1,24.3,00.0,34.0,27.0,11.6,0000.0,0012.86,0005.58,0003.82
2022-03-20 17:17:00,,0818.8,4.99,0.00,25.1,24.3,00.0,34.0,27.0,11.2,0000.0,0011.70,0005.52,0003.83
2022-03-20 17:18:00,,0818.8,5.00,0.00,25.2,24.3,00.0,34.0,27.0,11.3,0000.0,0012.05,0005.58,0003.87
2022-03-20 17:19:00,,0818.9,5.00,0.00,25.2,24.3,00.0,34.0,27.1,11.1,0000.0,0012.35,0005.63,0003.87
2022-03-20 17:20:00,,0818.8,5.00,0.00,25.2,24.4,00.0,34.0,27.1,11.0,0000.0,0012.60,0005.65,0003.86
2022-03-20 17:21:00,,0818.8,5.01,0.00,25.2,24.4,00.0,34.0,27.1,10.8,0000.0,0013.65,0005.66,0003.84
2022-03-20 17:22:00,,0818.8,4.98,0.00,25.2,24.4,00.0,34.1,27.1,10.8,0000.0,0014.08,0005.60,0003.79
2022-03-20 17:23:00,,0818.8,5.01,0.00,25.2,24.4,00.0,34.1,27.1,10.9,0000.0,0014.59,0005.60,0003.76
2022-03-20 17:24:00,,0818.8,5.00,0.00,25.2,24.4,00.0,34.1,27.1,10.8,0000.0,0014.63,0005.55,0003.73
2022-03-20 17:25:00,,0818.7,5.00,0.00,25.3,24.4,00.0,34.1,27.1,10.7,0000.0,0014.54,0005.47,0003.71
2022-03-20 17:26:00,,0818.7,5.00,0.00,25.3,24.4,00.0,34.1,27.1,10.4,0000.0,0014.86,0005.43,0003.67
2022-03-20 17:27:00,,0818.7,4.99,0.00,25.3,24.4,00.0,34.1,27.1,10.5,0000.0,0015.17,0005.39,0003.64
2022-03-20 17:28:00,,0818.7,5.01,0.00,25.3,24.4,00.0,34.1,27.2,10.5,0000.0,0015.10,0005.36,0003.62
2022-03-20 17:29:00,,0818.7,5.00,0.00,25.3,24.5,00.0,34.2,27.2,10.4,0000.0,0014.90,0005.35,0003.58
2022-03-20 17:30:00,,0818.7,4.99,0.00,25.3,24.5,00.0,34.2,27.2,10.8,0000.0,0014.10,0005.30,0003.55
2022-03-20 17:31:00,,0818.8,5.01,0.00,25.3,24.5,00.0,34.2,27.2,10.6,0000.0,0014.05,0005.23,0003.53
2022-03-20 17:32:00,,0818.8,5.01,0.00,25.3,24.5,00.0,34.2,27.2,10.7,0000.0,0013.16,0005.17,0003.51
2022-03-20 17:33:00,,0818.8,4.99,0.00,25.4,24.5,00.0,34.2,27.2,10.6,0000.0,0012.59,0005.15,0003.50
2022-03-20 17:34:00,,0818.6,5.01,0.00,25.4,24.5,00.0,34.2,27.2,10.4,0000.0,0012.38,0005.13,0003.49
2022-03-20 17:35:00,,0818.6,4.98,0.00,25.4,24.5,00.0,34.2,27.2,10.3,0000.0,0012.20,0005.08,0003.47
2022-03-20 17:36:00,,0818.6,5.01,0.00,25.4,24.5,00.0,34.2,27.2,10.3,0000.0,0012.33,0005.13,0003.46
2022-03-20 17:37:00,,0818.5,4.99,0.00,25.4,24.6,00.0,34.3,27.3,10.4,0000.0,0012.15,0005.19,0003.45
2022-03-20 17:38:00,,0818.5,5.01,0.00,25.4,24.6,00.0,34.3,27.3,10.5,0000.0,0011.87,0005.19,0003.44
2022-03-20 17:39:00,,0818.6,5.00,0.00,25.4,24.6,00.0,34.3,27.3,10.3,0000.0,0011.82,0005.15,0003.42
2022-03-20 17:40:00,,0818.6,5.00,0.00,25.5,24.6,00.0,34.3,27.3,10.2,0000.0,0011.55,0005.04,0003.40
2022-03-20 17:41:00,,0818.6,5.00,0.00,25.5,24.6,00.0,34.3,27.3,10.0,0000.0,0011.21,0004.97,0003.37
2022-03-20 17:42:00,,0818.5,5.01,0.00,25.5,24.6,00.0,34.3,27.3,10.2,0000.0,0011.99,0004.94,0003.35
2022-03-20 17:43:00,,0818.5,4.99,0.00,25.5,24.6,00.0,34.3,27.3,10.7,0000.0,0012.27,0004.95,0003.33
2022-03-20 17:44:00,,0818.5,5.01,0.00,25.5,24.7,00.0,34.3,27.4,10.1,0000.0,0012.24,0004.93,0003.32
2022-03-20 17:45:00,,0818.5,4.99,0.00,25.5,24.7,00.0,34.4,27.4,10.6,0000.0,0012.27,0004.87,0003.29
2022-03-20 17:46:00,,0818.5,5.01,0.00,25.5,24.7,00.0,34.4,27.4,10.7,0000.0,0012.68,0004.88,0003.27
2022-03-20 17:47:00,,0818.5,5.00,0.00,25.6,24.7,00.0,34.4,27.4,10.5,0000.0,0012.65,0004.82,0003.24
2022-03-20 17:48:00,,0818.5,5.01,0.00,25.6,24.8,00.0,34.4,27.5,10.3,0000.0,0012.43,0004.72,0003.22
2022-03-20 17:49:00,,0818.5,5.00,0.00,25.6,24.8,00.0,34.4,27.5,10.6,0000.0,0012.28,0004.69,0003.20
2022-03-20 17:50:00,,0818.5,5.00,0.00,25.6,24.8,00.0,34.4,27.5,10.4,0000.0,0012.45,0004.70,0003.21
2022-03-20 17:51:00,,0818.5,4.99,0.00,25.7,24.8,00.0,34.5,27.6,10.3,0000.0,0012.58,0004.74,0003.21
2022-03-20 17:52:00,,0818.4,5.01,0.00,25.7,24.9,00.0,34.5,27.6,10.4,0000.0,0013.01,0004.79,0003.23
2022-03-20 17:53:00,,0818.4,5.01,0.00,25.7,24.9,00.0,34.5,27.6,10.4,0000.0,0012.50,0004.79,0003.24
2022-03-20 17:54:00,,0818.5,5.00,0.00,25.7,24.9,00.0,34.5,27.6,10.4,0000.0,0012.15,0004.79,0003.24
2022-03-20 17:55:00,,0818.4,4.99,0.00,25.7,24.9,00.0,34.5,27.6,10.1,0000.0,0012.13,0004.79,0003.24
2022-03-20 17:56:00,,0818.4,4.99,0.00,25.8,25.0,00.0,34.6,27.7,10.3,0000.0,0011.74,0004.78,0003.23
2022-03-20 17:57:00,,0818.4,5.00,0.00,25.8,25.0,00.0,34.6,27.7,10.1,0000.0,0011.69,0004.77,0003.23
2022-03-20 17:58:00,,0818.4,5.01,0.00,25.8,25.0,00.0,34.6,27.7,10.1,0000.0,0011.40,0004.76,0003.23
2022-03-20 17:59:00,,0818.4,4.99,0.00,25.8,25.0,00.0,34.6,27.7,10.1,0000.0,0011.52,0004.80,0003.23
